Theta_e
320 319 318 316 317 318 319 327 326 326 316 313 311 311 308 306 306 307 308 307 307 306 306 306 306 307 309 311 314 317 323 327 330 329 330 329 325 320 320 319 320 320 321 321
321 320 314 314 316 319 319 322 323 323 321 318 314 311 310 309 307 306 306 305 305 305 303 303 303 304 304 305 307 311 314 319 324 326 327 325 318 314 313 313 312 312 311 310
317 317 316 316 317 319 320 320 318 321 324 319 319 320 315 308 306 306 305 304 303 303 303 301 301 300 301 301 301 303 307 311 314 317 318 315 310 307 306 304 303 302 301 301
314 312 317 318 318 318 322 319 317 323 326 327 322 328 322 310 307 304 304 304 303 303 302 301 299 299 298 299 299 299 301 304 305 306 306 305 301 300 299 298 298 298 297 297
314 312 313 318 318 318 321 318 317 319 319 321 322 326 320 312 311 306 304 303 302 302 301 300 299 297 297 297 297 297 297 298 298 298 299 298 297 296 296 296 296 296 296 296
311 311 310 311 314 317 320 321 320 320 322 324 321 321 314 316 313 306 304 303 302 301 300 299 298 297 296 296 296 296 296 295 295 296 296 296 295 295 295 294 294 294 294 294
314 314 312 310 318 320 321 323 323 324 324 322 317 320 314 307 306 304 303 302 302 300 299 298 298 296 295 295 295 295 295 294 294 294 294 294 293 293 293 292 292 292 292 292
317 316 313 310 317 322 323 322 321 322 322 319 317 321 310 304 302 302 302 301 300 299 299 298 297 296 295 294 294 294 294 294 294 293 293 292 292 292 291 291 290 290 290 290
318 315 313 312 312 318 321 322 314 314 308 318 317 306 304 302 301 301 301 300 300 299 298 297 296 295 294 293 293 293 293 292 292 292 292 291 291 291 290 290 289 289 289 289
312 317 314 314 312 313 319 314 320 316 317 320 315 308 308 303 302 300 300 300 299 299 297 296 295 294 293 293 292 292 292 291 291 291 291 290 290 289 289 289 288 287 287 288
311 313 315 314 312 312 311 315 313 315 315 315 314 312 304 304 302 300 298 299 299 298 296 295 294 294 293 292 292 291 292 291 291 291 290 290 289 289 289 288 287 287 286 286
312 313 315 315 309 309 313 312 311 314 315 311 311 309 300 303 301 298 297 297 297 297 295 295 294 294 293 292 291 291 291 291 291 290 290 290 289 288 288 286 286 285 285 285
309 313 313 314 311 310 314 314 312 310 308 312 311 307 298 299 298 298 297 296 297 296 294 294 294 293 292 291 291 291 291 291 290 289 289 288 287 286 285 284 284 285 285 284
307 306 311 312 309 309 314 313 312 310 308 310 308 303 298 298 298 297 296 296 296 295 294 293 293 293 292 292 291 290 290 289 288 287 287 286 285 284 284 284 284 284 284 284
304 304 302 301 300 309 312 313 313 311 309 308 308 303 300 299 298 297 296 295 295 294 293 293 293 293 292 291 290 289 288 287 286 286 285 285 284 284 284 284 284 283 283 282
304 306 299 301 299 307 310 310 310 311 309 303 302 305 298 296 294 294 295 295 295 294 293 293 294 293 291 290 289 288 287 287 286 285 284 283 283 283 283 283 282 282 281 281
303 302 302 305 295 297 311 302 307 307 306 303 305 304 300 296 296 296 294 294 294 293 293 292 293 293 291 289 288 287 286 285 285 284 283 283 282 282 282 282 281 280 280 280
298 298 295 298 291 300 298 295 295 304 301 303 301 301 300 297 294 294 294 294 294 292 292 292 293 291 290 289 287 287 286 285 284 283 283 282 282 282 281 281 280 279 278 278
297 296 289 294 284 292 295 295 298 303 303 299 298 294 293 292 292 294 293 292 292 292 293 293 292 291 289 288 287 286 284 284 283 282 282 282 281 281 280 279 278 278 278 278
293 291 294 281 290 293 295 294 294 296 299 296 295 294 293 292 293 290 292 292 292 293 293 292 291 289 288 287 285 285 284 282 282 281 280 280 280 280 279 278 277 277 277 276
282 282 287 281 284 288 292 293 293 297 299 295 294 293 292 292 292 290 291 292 293 292 292 291 290 289 288 286 285 284 283 283 282 281 280 280 280 279 279 277 276 276 276 275
288 288 283 277 284 293 291 293 294 294 293 293 292 292 292 291 291 290 290 290 291 291 291 290 289 288 287 286 284 283 282 282 281 280 279 279 279 278 277 276 276 275 275 274
288 290 289 290 292 292 290 293 292 292 293 293 292 291 291 290 290 290 289 289 290 291 290 289 288 287 286 285 283 282 283 282 280 279 279 279 279 276 276 276 275 274 274 273
289 289 290 289 290 293 292 291 292 293 293 293 291 290 289 290 289 290 288 289 290 290 290 289 287 286 286 285 284 283 282 281 279 278 279 279 277 276 275 275 274 273 273 272
289 289 289 288 290 290 290 290 291 291 292 291 290 290 289 289 290 289 288 289 290 289 289 288 287 286 286 285 284 283 281 280 277 278 278 278 276 275 275 274 273 273 272 271
289 290 290 290 289 290 290 290 289 289 290 290 289 290 290 290 288 289 288 290 289 289 288 287 287 286 286 285 284 282 281 279 277 277 278 277 275 274 274 273 273 272 271 271
Wind_Speed
4 4 12 10 4 6 9 17 11 2 5 12 7 10 8 7 10 10 9 8 10 10 13 22 23 23 25 25 23 22 20 19 17 13 9 19 21 21 22 21 20 20 18 18
3 11 4 6 5 5 11 15 9 6 8 8 6 10 9 9 5 5 6 7 8 7 10 17 22 25 27 27 27 27 26 22 21 21 17 15 16 21 21 20 21 21 21 20
5 2 9 7 6 9 5 13 6 9 9 7 9 2 1 5 6 7 7 7 7 7 7 11 17 22 26 28 29 29 29 28 24 20 17 17 18 20 23 24 23 24 23 23
5 4 15 7 12 11 11 6 11 18 15 5 10 4 7 3 5 5 5 6 7 7 8 11 14 20 23 25 28 31 31 31 29 27 28 27 26 23 20 21 22 23 25 25
6 5 7 11 11 8 5 9 12 9 4 9 10 2 2 14 7 8 6 7 6 6 6 8 13 17 20 24 27 30 32 32 30 29 28 27 25 22 21 21 22 23 24 25
7 2 7 7 4 7 9 10 9 3 2 5 12 7 5 10 12 11 8 8 8 7 6 10 12 17 21 22 25 27 29 30 28 27 26 25 24 22 23 24 24 24 24 25
5 4 2 3 7 8 9 16 3 4 4 4 10 5 3 8 15 14 14 10 7 6 6 6 9 12 19 22 22 24 26 27 25 25 25 23 21 22 22 22 22 23 23 25
6 7 7 3 3 9 16 7 5 7 6 4 3 6 2 2 8 11 10 10 8 7 5 6 10 13 17 20 21 22 22 23 22 22 21 20 20 20 20 19 19 19 19 19
6 4 1 1 2 9 6 5 3 6 3 3 4 2 5 4 8 11 11 10 8 7 6 6 12 15 16 18 18 18 18 19 18 18 17 18 17 18 17 17 18 18 18 17
4 3 1 2 2 1 5 8 3 2 7 4 2 3 4 11 13 11 11 10 8 6 7 8 13 14 14 15 15 15 16 17 16 16 16 16 16 16 16 17 18 18 18 18
3 1 1 2 1 7 4 5 4 4 1 4 5 5 5 19 17 16 11 11 11 9 7 8 12 13 13 12 12 13 14 14 15 14 14 14 15 15 15 16 16 16 16 17
3 2 4 2 1 2 1 5 5 4 3 2 1 3 5 15 13 13 11 10 8 9 8 12 13 11 10 9 9 10 10 12 12 11 11 12 12 12 13 14 14 15 15 16
3 3 3 7 3 4 2 1 3 5 3 5 4 3 4 11 12 12 12 9 8 8 7 10 11 10 8 6 6 7 8 9 9 9 8 9 11 12 12 12 13 14 15 13
3 2 1 1 1 3 5 4 3 5 3 4 3 5 5 13 15 11 9 9 8 8 8 6 9 9 7 4 3 3 4 5 5 5 6 8 10 11 11 11 12 12 11 12
2 3 3 4 5 0 3 7 5 4 4 5 6 10 16 17 16 14 9 8 9 8 7 6 7 8 5 2 1 1 1 2 3 3 5 7 8 8 7 8 9 9 11 12
2 3 2 7 10 5 4 3 5 6 4 6 7 1 7 6 8 8 10 10 10 8 7 6 9 9 7 6 5 4 3 3 3 4 5 6 6 5 5 6 8 10 12 13
2 3 3 1 4 4 4 3 1 3 2 7 6 6 13 7 12 13 10 9 10 9 7 7 10 10 9 7 5 5 4 4 5 5 6 6 5 4 4 6 7 10 11 12
3 4 3 2 4 2 4 2 2 2 1 3 2 8 14 11 5 6 5 8 8 8 7 9 11 9 7 7 6 6 6 7 7 7 7 6 5 4 4 5 8 10 12 14
3 4 3 4 2 4 3 4 4 4 5 3 6 6 6 7 6 2 3 5 8 10 14 13 10 9 9 9 8 7 7 8 8 8 8 7 6 5 6 7 10 12 14 15
4 6 4 3 5 5 3 2 2 2 4 7 7 9 10 6 5 4 5 7 10 13 12 10 9 9 9 9 8 9 9 9 10 10 9 8 7 7 8 9 11 12 13 15
4 4 4 1 1 6 5 3 0 6 5 3 9 10 8 5 4 6 10 7 12 12 11 10 10 10 9 9 9 10 11 13 12 11 9 9 9 9 9 10 11 13 15 16
4 4 1 3 4 5 6 3 6 4 0 5 6 7 7 6 7 6 8 8 12 12 11 11 10 11 10 11 12 13 15 12 12 11 10 10 10 10 11 11 12 12 13 16
2 5 3 6 5 3 5 3 4 4 3 4 8 7 9 8 6 7 7 10 13 13 11 11 13 12 13 14 15 16 15 12 13 13 12 11 11 11 11 11 13 15 14 16
4 3 2 3 3 6 5 3 4 4 3 4 4 6 8 8 8 6 4 7 9 10 12 12 13 16 18 15 16 17 15 14 15 14 14 12 12 12 11 13 13 15 15 17
4 6 5 4 6 5 7 8 7 5 2 4 5 7 8 7 6 5 5 10 12 13 13 15 17 19 20 15 17 16 16 16 17 16 14 14 13 13 14 14 14 13 15 13
6 7 5 6 7 5 4 8 8 8 8 9 8 5 6 9 6 8 10 14 14 15 15 16 18 20 21 18 19 18 17 18 18 18 16 15 15 14 15 15 17 14 14 12
Wind_Direction
198 161 208 194 159 125 148 179 205 183 103 69 71 78 54 28 53 69 68 64 65 54 41 52 54 58 63 62 63 63 67 71 94 97 97 82 73 67 68 61 57 51 46 42
155 225 187 167 218 174 166 177 169 122 128 84 64 72 59 48 49 60 85 72 71 63 42 35 45 56 60 62 64 65 65 72 81 90 92 92 87 75 72 65 56 51 48 46
191 246 171 185 186 206 196 178 174 140 131 77 119 320 60 69 63 73 61 71 63 66 60 34 36 49 61 63 64 68 69 71 75 87 101 97 86 73 62 54 54 51 49 48
239 263 185 181 205 198 201 164 144 143 156 173 173 181 190 153 98 72 68 71 69 69 62 55 47 49 59 68 73 74 74 74 74 78 79 76 72 64 57 56 53 49 45 43
212 197 177 198 194 176 194 106 133 149 129 119 184 151 206 155 177 154 135 102 87 74 73 63 58 62 72 73 74 76 76 73 72 72 74 73 70 66 58 51 47 42 39 36
203 214 178 200 156 187 142 92 60 87 45 209 183 178 194 186 180 157 145 131 125 111 95 80 75 77 77 76 75 77 75 71 68 67 66 62 58 50 46 39 36 33 31 28
181 196 250 176 119 154 137 144 133 180 192 240 162 167 217 200 167 160 154 144 128 118 112 103 87 75 73 72 73 70 71 69 64 62 60 59 56 51 47 40 33 28 25 23
165 202 184 187 203 177 167 166 156 186 171 159 172 212 278 138 127 129 135 132 124 115 101 90 89 85 83 79 73 70 66 65 61 57 56 55 52 49 46 40 37 33 28 21
188 222 275 175 135 163 175 190 60 102 32 109 139 10 360 72 115 133 140 135 134 128 119 100 100 96 90 83 75 71 68 65 61 58 52 50 48 45 41 37 34 31 27 22
193 159 310 147 128 32 182 128 102 65 159 173 144 205 205 182 172 161 156 150 144 137 130 126 122 111 95 81 71 64 60 59 57 53 48 45 44 42 38 33 30 25 21 19
155 4 273 154 165 166 144 178 133 105 305 133 139 243 202 182 180 169 163 156 155 150 146 142 129 114 99 84 71 64 58 54 47 43 39 39 36 33 28 25 23 21 18 17
108 153 189 158 102 284 273 158 145 124 183 51 121 237 319 176 167 156 158 159 154 149 149 149 137 123 106 90 76 62 50 44 37 32 26 27 24 23 21 21 21 20 19 21
108 228 140 136 33 335 162 133 116 91 78 170 151 249 29 133 145 160 155 154 151 147 147 146 144 135 113 89 66 50 36 30 19 16 15 15 17 18 19 19 19 20 20 15
204 57 119 161 259 135 143 137 118 125 115 164 195 159 171 160 160 157 157 153 154 155 153 147 146 137 115 92 47 37 18 9 6 1 3 10 11 14 12 17 20 22 21 20
147 104 98 82 327 54 124 150 145 97 148 152 190 175 191 177 164 164 159 151 146 155 152 157 157 157 147 146 212 248 311 318 336 342 353 1 1 2 9 21 25 23 23 20
5 118 83 36 10 44 77 110 133 120 120 83 124 275 130 130 127 145 158 158 161 162 165 159 161 172 185 209 213 226 265 282 309 323 334 342 350 1 12 20 18 15 13 9
351 117 55 46 352 23 110 247 117 146 150 146 167 203 153 158 170 171 165 164 170 170 167 166 180 196 208 213 224 253 278 283 296 300 310 319 325 343 2 6 3 0 359 355
106 69 34 147 7 48 242 287 317 124 118 177 107 162 172 163 116 125 146 163 172 163 169 180 193 208 214 222 235 258 265 265 274 279 290 299 307 316 328 335 344 347 347 346
34 121 81 125 153 282 316 224 174 162 248 204 139 109 106 106 73 57 161 161 172 174 185 195 205 212 217 225 238 250 260 261 267 277 284 278 276 290 313 323 334 339 337 338
54 56 104 57 122 179 251 211 220 110 313 184 145 149 139 130 147 229 181 162 169 182 187 196 206 215 223 228 240 258 269 266 270 269 265 267 276 291 303 314 319 323 326 325
3 4 113 92 124 289 242 218 86 99 235 160 161 154 150 152 189 172 156 166 182 189 202 212 216 231 242 245 251 261 266 263 267 265 265 263 266 276 288 299 310 319 323 322
159 121 200 75 55 292 183 77 166 212 244 163 139 154 152 150 142 146 165 176 186 197 205 220 228 240 249 247 248 257 260 270 261 260 259 260 264 276 283 289 302 308 315 320
316 182 188 179 215 245 211 215 217 179 168 188 156 175 161 142 168 171 195 203 209 216 224 233 237 247 250 245 244 253 268 266 257 252 253 258 262 275 277 286 304 312 320 323
242 187 195 60 239 232 225 239 234 194 202 152 158 154 159 165 173 190 207 213 218 228 236 242 244 249 254 254 256 263 264 263 254 251 253 257 267 275 277 290 299 304 313 319
200 140 180 264 268 299 252 217 204 208 147 145 149 165 178 167 188 203 214 222 233 245 249 247 250 256 261 262 263 263 256 255 250 250 254 260 271 278 283 291 300 301 308 309
188 182 174 217 217 171 230 208 185 202 208 202 178 175 187 190 206 214 228 233 240 248 248 248 255 260 267 267 267 261 253 250 249 250 254 261 271 276 283 291 296 294 300 302